• In Hungary
  • List of Countries
  • For 7 days
  • Water Temperature
  • Satellite Maps
  • Weather Map
  • News
  • Weather Widgets
  • user-avatar
    Login

    Hourly Weather Posukhiv

    Today, 20 November, Monday

    Time Temperature Precipitation Wind Pressure Humidity
    00:00 +1°C° 0 mm 2 mps 733 mmHg 83%
    01:00 +1°C° 0 mm 2 mps 733 mmHg 83%
    02:00 +1°C° 0 mm 2 mps 732 mmHg 82%
    03:00 +1°C° 0.1 mm 2 mps 732 mmHg 83%
    04:00 +1°C° 0.1 mm 2 mps 732 mmHg 84%
    05:00 +1°C° 0.1 mm 2 mps 732 mmHg 85%
    06:00 +1°C° 0 mm 2 mps 732 mmHg 84%
    07:00 +1°C° 0 mm 2 mps 732 mmHg 84%
    08:00 0°C° 0 mm 3 mps 732 mmHg 81%
    09:00 0°C° 0 mm 4 mps 732 mmHg 76%
    10:00 +1°C° 0 mm 5 mps 733 mmHg 72%
    11:00 +2°C° 0 mm 6 mps 733 mmHg 67%
    12:00 +2°C° 0 mm 6 mps 733 mmHg 68%
    13:00 +2°C° 0 mm 6 mps 733 mmHg 68%
    14:00 +1°C° 0 mm 6 mps 733 mmHg 70%
    15:00 +1°C° 0.1 mm 6 mps 734 mmHg 74%
    16:00 -1°C° 0.1 mm 6 mps 734 mmHg 77%
    17:00 -1°C° 0.1 mm 6 mps 734 mmHg 80%
    18:00 -1°C° 0 mm 5 mps 734 mmHg 80%
    19:00 -1°C° 0 mm 5 mps 735 mmHg 80%
    20:00 -1°C° 0 mm 5 mps 735 mmHg 80%
    21:00 -2°C° 0 mm 5 mps 735 mmHg 80%
    22:00 -2°C° 0 mm 4 mps 735 mmHg 80%
    23:00 -2°C° 0 mm 4 mps 735 mmHg 79%

    Tomorrow, 21 November, Tuesday

    Time Temperature Precipitation Wind Pressure Humidity
    00:00 -2°C° 0 mm 4 mps 735 mmHg 80%
    01:00 -1°C° 0 mm 3 mps 735 mmHg 81%
    02:00 -1°C° 0 mm 3 mps 735 mmHg 81%
    03:00 -1°C° 0.2 mm 3 mps 735 mmHg 82%
    04:00 -1°C° 0.2 mm 4 mps 735 mmHg 82%
    05:00 -1°C° 0.2 mm 4 mps 735 mmHg 83%
    06:00 -1°C° 0.3 mm 4 mps 735 mmHg 84%
    07:00 -1°C° 0.3 mm 4 mps 735 mmHg 85%
    08:00 -1°C° 0.3 mm 5 mps 735 mmHg 86%
    09:00 -1°C° 0 mm 5 mps 735 mmHg 84%
    10:00 0°C° 0 mm 5 mps 735 mmHg 81%
    11:00 0°C° 0 mm 5 mps 735 mmHg 79%
    12:00 0°C° 0 mm 4 mps 735 mmHg 77%
    13:00 0°C° 0 mm 4 mps 735 mmHg 76%
    14:00 +1°C° 0 mm 4 mps 735 mmHg 74%
    15:00 +1°C° 0 mm 3 mps 735 mmHg 79%
    16:00 +1°C° 0 mm 2 mps 735 mmHg 84%
    17:00 +1°C° 0 mm 1 mps 735 mmHg 88%
    18:00 +1°C° 0 mm 1 mps 735 mmHg 89%
    19:00 +1°C° 0 mm 1 mps 735 mmHg 89%
    20:00 0°C° 0 mm 1 mps 736 mmHg 89%
    21:00 0°C° 0 mm 1 mps 736 mmHg 89%
    22:00 0°C° 0 mm 1 mps 736 mmHg 88%
    23:00 0°C° 0 mm 1 mps 736 mmHg 88%

    Day after tomorrow, 22 November, Wednesday

    Time Temperature Precipitation Wind Pressure Humidity
    00:00 +1°C° 0 mm 1 mps 736 mmHg 87%
    01:00 +1°C° 0 mm 1 mps 736 mmHg 87%
    02:00 +1°C° 0 mm 1 mps 736 mmHg 86%
    03:00 +1°C° 0 mm 1 mps 736 mmHg 85%
    04:00 +1°C° 0 mm 1 mps 736 mmHg 84%
    05:00 +1°C° 0 mm 1 mps 736 mmHg 83%
    06:00 +1°C° 0 mm 1 mps 736 mmHg 83%
    07:00 +1°C° 0 mm 1 mps 736 mmHg 83%
    08:00 +1°C° 0 mm 1 mps 736 mmHg 83%
    09:00 +2°C° 0 mm 1 mps 737 mmHg 79%
    10:00 +3°C° 0 mm 1 mps 737 mmHg 76%
    11:00 +4°C° 0 mm 1 mps 737 mmHg 73%
    12:00 +4°C° 0 mm 1 mps 737 mmHg 73%
    13:00 +4°C° 0 mm 2 mps 737 mmHg 73%
    14:00 +4°C° 0 mm 2 mps 736 mmHg 73%
    15:00 +3°C° 0.3 mm 2 mps 736 mmHg 76%
    16:00 +3°C° 0.3 mm 2 mps 736 mmHg 80%
    17:00 +2°C° 0.3 mm 2 mps 736 mmHg 83%
    18:00 +2°C° 0.6 mm 2 mps 737 mmHg 84%
    19:00 +2°C° 0.6 mm 2 mps 737 mmHg 86%
    20:00 +2°C° 0.6 mm 2 mps 737 mmHg 87%
    21:00 +2°C° 0.1 mm 2 mps 737 mmHg 88%
    22:00 +2°C° 0.1 mm 2 mps 738 mmHg 88%
    23:00 +2°C° 0.1 mm 2 mps 738 mmHg 89%

    23 November, Thursday

    Time Temperature Precipitation Wind Pressure Humidity
    00:00 +2°C° 0 mm 2 mps 738 mmHg 90%
    01:00 +2°C° 0 mm 2 mps 738 mmHg 91%
    02:00 +2°C° 0 mm 2 mps 738 mmHg 91%
    03:00 +2°C° 0 mm 2 mps 738 mmHg 92%
    04:00 +2°C° 0 mm 2 mps 739 mmHg 92%
    05:00 +1°C° 0 mm 2 mps 739 mmHg 93%
    06:00 +1°C° 0 mm 2 mps 739 mmHg 93%
    07:00 +1°C° 0 mm 2 mps 739 mmHg 93%
    08:00 +1°C° 0 mm 2 mps 740 mmHg 93%
    09:00 +2°C° 0 mm 2 mps 740 mmHg 92%
    10:00 +3°C° 0 mm 2 mps 740 mmHg 90%
    11:00 +3°C° 0 mm 3 mps 740 mmHg 89%
    12:00 +3°C° 0 mm 3 mps 740 mmHg 87%
    13:00 +4°C° 0 mm 3 mps 740 mmHg 86%
    14:00 +4°C° 0 mm 3 mps 740 mmHg 85%
    15:00 +5°C° 0 mm 2 mps 740 mmHg 88%
    16:00 +4°C° 0 mm 2 mps 740 mmHg 90%
    17:00 +3°C° 0 mm 2 mps 740 mmHg 92%
    18:00 +3°C° 0 mm 2 mps 741 mmHg 92%
    19:00 +3°C° 0 mm 2 mps 741 mmHg 92%
    20:00 +2°C° 0 mm 2 mps 741 mmHg 92%
    21:00 +2°C° 0 mm 2 mps 741 mmHg 92%
    22:00 +2°C° 0 mm 2 mps 741 mmHg 92%
    23:00 +2°C° 0 mm 2 mps 741 mmHg 92%

    24 November, Friday

    Time Temperature Precipitation Wind Pressure Humidity
    00:00 +2°C° 0 mm 2 mps 741 mmHg 91%
    01:00 +2°C° 0 mm 2 mps 741 mmHg 91%
    02:00 +3°C° 0 mm 1 mps 741 mmHg 90%
    03:00 +3°C° 0 mm 1 mps 741 mmHg 90%
    04:00 +3°C° 0 mm 1 mps 742 mmHg 89%
    05:00 +3°C° 0 mm 1 mps 742 mmHg 88%
    06:00 +3°C° 0 mm 1 mps 742 mmHg 89%
    07:00 +3°C° 0 mm 1 mps 742 mmHg 89%
    08:00 +2°C° 0 mm 2 mps 742 mmHg 89%
    09:00 +3°C° 0 mm 2 mps 743 mmHg 86%
    10:00 +4°C° 0 mm 2 mps 743 mmHg 83%
    11:00 +6°C° 0 mm 2 mps 743 mmHg 81%
    12:00 +6°C° 0 mm 2 mps 743 mmHg 80%
    13:00 +7°C° 0 mm 2 mps 743 mmHg 79%
    14:00 +8°C° 0 mm 1 mps 743 mmHg 78%
    15:00 +8°C° 0 mm 1 mps 743 mmHg 81%
    16:00 +7°C° 0 mm 1 mps 743 mmHg 84%
    17:00 +6°C° 0 mm 1 mps 743 mmHg 88%
    18:00 +6°C° 0 mm 1 mps 744 mmHg 88%
    19:00 +5°C° 0 mm 1 mps 744 mmHg 88%
    20:00 +5°C° 0 mm 1 mps 744 mmHg 88%
    21:00 +5°C° 0 mm 1 mps 744 mmHg 88%
    22:00 +5°C° 0 mm 1 mps 745 mmHg 88%
    23:00 +5°C° 0 mm 1 mps 745 mmHg 88%

    25 November, Saturday

    Time Temperature Precipitation Wind Pressure Humidity
    00:00 +5°C° 0 mm 1 mps 745 mmHg 88%
    01:00 +5°C° 0 mm 1 mps 745 mmHg 88%
    02:00 +5°C° 0 mm 1 mps 745 mmHg 88%
    03:00 +4°C° 0 mm 1 mps 745 mmHg 88%
    04:00 +4°C° 0 mm 1 mps 745 mmHg 88%
    05:00 +4°C° 0 mm 1 mps 745 mmHg 88%
    06:00 +4°C° 0 mm 1 mps 745 mmHg 88%
    07:00 +3°C° 0 mm 2 mps 745 mmHg 88%
    08:00 +3°C° 0 mm 2 mps 745 mmHg 88%
    09:00 +4°C° 0 mm 2 mps 745 mmHg 84%
    10:00 +5°C° 0 mm 2 mps 745 mmHg 80%
    11:00 +6°C° 0 mm 2 mps 745 mmHg 77%
    12:00 +7°C° 0 mm 2 mps 744 mmHg 75%
    13:00 +8°C° 0 mm 2 mps 744 mmHg 73%
    14:00 +8°C° 0 mm 2 mps 744 mmHg 71%
    15:00 +7°C° 0 mm 2 mps 744 mmHg 75%
    16:00 +6°C° 0 mm 2 mps 744 mmHg 78%
    17:00 +5°C° 0 mm 2 mps 743 mmHg 82%
    18:00 +5°C° 0 mm 2 mps 743 mmHg 83%
    19:00 +4°C° 0 mm 2 mps 743 mmHg 84%
    20:00 +4°C° 0 mm 2 mps 743 mmHg 84%
    21:00 +4°C° 0 mm 2 mps 743 mmHg 85%
    22:00 +4°C° 0 mm 2 mps 743 mmHg 86%
    23:00 +4°C° 0 mm 2 mps 743 mmHg 86%
    Show more